Flag for U.S.A. Weather past 2 weeks in Cincinnati, Ohio, U.S.A.

Now
75 °F

Sunny.


Feels Like: 78 °F
Forecast: 46 / 74 °F
Wind: 7 mph from East

Location: Cincinnati Municipal Airport Lunken Field

Current Time: Oct 1, 2014 at 4:30:20 PM

Latest Report: Oct 1, 2014 at 3:53 PM


Visibility: 10 mi

Pressure: 29.98 "Hg

Humidity: 48%

Dew point: 54 °F

Location of CincinnatiLocation

Historic Weather in Cincinnati — Graph

°F

Cincinnati temperature yesterday

Maximum temperature yesterday: 78 °F (at 2:53 PM)
Minimum temperature yesterday: 50 °F (at 4:53 AM)
Average temperature yesterday: 62 °F

Past Weeks' High & Low Weather Summary

 TemperatureHumidityPressure
High83 °F (Sep 29, 2:53 PM)100% (Sep 17, 2:53 AM)30.38 "Hg (Sep 17, 2:53 AM)
Low41 °F (Sep 23, 6:54 AM)30% (Sep 21, 2:53 PM)29.80 "Hg (Sep 21, 5:53 AM)
Average61 °F76%30.12 "Hg
* Reported Sep 16 2:53 PM — Oct 1 2:53 PM, Cincinnati, Weather by CustomWeather, © 2014

Note: Actual official high and low records may vary slightly from our data, if they occured in-between our weather recording intervals... More about our weather records

Advertising

Cincinnati weather history for previous 24 hours

 ConditionsComfort  
Time TempWeatherWind HumidityBarometerVisibility
2:53 PM
Oct 1
72 °FSunny.No wind52%30.00 "Hg10 mi
1:53 PM72 °FSunny.3 mph53%30.02 "Hg10 mi
12:53 PM67 °FSunny.3 mph61%30.04 "Hg10 mi
11:53 AM61 °FSunny.No wind75%30.05 "Hg9 mi
10:53 AM54 °FFog.5 mph93%30.06 "Hg4 mi
9:53 AM51 °FFog.6 mph100%30.05 "Hg2 mi
9:00 AM50 °FFog.No wind100%30.05 "Hg1 mi
8:00 AM47 °FLow clouds.No wind100%30.03 "Hg10 mi
6:53 AM44 °FClear.No wind100%30.01 "Hg8 mi
6:02 AM45 °FFog.3 mph100%30.00 "Hg6 mi
4:53 AM47 °FClear.No wind97%29.99 "Hg10 mi
3:53 AM48 °FClear.No wind96%29.99 "Hg7 mi
2:53 AM50 °FClear.No wind93%30.01 "Hg10 mi
1:53 AM52 °FClear.No wind89%30.01 "Hg10 mi
12:53 AM53 °FClear.5 mph86%30.00 "Hg10 mi
11:53 PM
Sep 30
54 °FClear.6 mph83%29.99 "Hg10 mi
10:53 PM57 °FClear.9 mph81%29.98 "Hg10 mi
9:53 PM59 °FClear.8 mph84%29.97 "Hg10 mi
8:53 PM61 °FPassing clouds.6 mph83%29.96 "Hg10 mi
7:53 PM64 °FPartly sunny.8 mph78%29.94 "Hg10 mi
6:53 PM67 °FPassing clouds.9 mph73%29.92 "Hg9 mi
5:53 PM70 °FPartly sunny.12 mph68%29.90 "Hg10 mi
4:53 PM75 °FSunny.12 mph60%29.89 "Hg9 mi
Weather by CustomWeather, © 2014

See weather overviewHow to use our weather pages